Showing default

TIANQI 24, 57795

Orbit data source: Space-Track

TIANQI 24, 57795 is a payload satellite owned by Guodian Gaokeji (CN) in LEO that was launched on Tue, 05 Sep 2023 UTC via a GUSHENXING 1 launch vehicle from the Yellow Sea Launch Area, China (YSLA). Payload-class satellites include a variety of spacecraft equipped with specific instruments for various scientific and technological missions. These include communications satellites like Starlink; space stations such as the ISS; scientific satellites like the Hubble; Earth observation satellites from companies like Planet Labs, Umbra, and HawkEye 360; GPS; miniature CubeSats for education and research; and military/defense satellites.

Loading next visibility...
Identifier
57795, 2023-135D
Orbit
LEO
Country
Flag of CNCN / PRC
Related business
Manufacturer
Shanghai ASES
Mission
Operational Commercial Communications
Bus & Motor
STARLIGHTB, Unknown motor
Mass
40 kg wet, ~40 kg dry
Launch date (UTC)
2023-09-05 (3 years ago)
Launch vehicle
GUSHENXING 1
Launch site
Yellow Sea Launch Area, China (YSLA)
Object type
Payload
Rocket body
Debris
Shape & HBR
Box, 0.3 m
Radar Cross Section
0.195 m², Medium (>0.1 m² and < 1m²)

Expand to show TLE details & history
Last TLE update: 2 days ago

TLE from 2 days ago
0 TIANQI 24
1 57795U 23135D   26171.46527338 -.00000062  00000-0  42660-4 0  9993
2 57795  49.9717 138.9893 0014288 273.9924  85.9355 14.23143160145091
Epoch: 2026-06-20T11:09Z
TLE epoch observation values (Epoch: 2026-06-20T11:09:59.620Z)
Latitude
0.00001°
Longitude
62.81138°
Altitude
814.555 km
Speed
7.448 km/s
True Right ascension
09h 15m 57s
True Declination
0° 00' 00"
Sunlit
Object was in daylight at epoch
Visualization orbit readout
Latitude
Unknown
Longitude
Unknown
Altitude
Unknown
Speed
Unknown
Apparent Right ascension
Unknown
Apparent Declination
Unknown
Sunlit
N/A
Visualization observer readout
Local Sidereal Time
21:23:57
Azimuth
Unknown
Elevation
Unknown
Doppler factor
Unknown
Orbital elements
Apogee altitude
825.763 km
Perigee altitude
805.206 km
Semi-major axis
7,193.622 km
Eccentricity
0.00143
Inclination
49.9717°
RAAN
138.9893°
Arg. of periapsis
273.9924°
True anomaly
86.09884°
Mean anomaly
85.9355°
Eccentric anomaly
86.01717°
Mean motion
3.55731 °/min
Orbital period
101.2 mins
BSTAR
0.00004266
Loading maneuver chart data...
Computing Atmospheric mass density...
Loading historical data...
Loading historical data...
Loading historical data...
Loading historical data...
Loading historical data...
Loading historical data...
Loading historical data...
Other satellites on launch #135 in the year 2023 (2023-09-05 UTC)

Documentation

Showing up to 5 results
|